Location: AstroGeek's Observatory
(41.9520°N, 70.9880°W)
Time: 07:35:23
(UTC-04:00)

ISS - All Passes

Search period start: 27 July 2016 00:00
Search period end: 06 August 2016 00:00
Orbit: 401 x 404 km, 51.6° (Epoch: 27 July)

Date Brightness Start Highest point End Pass type
(mag) Time Alt. Az. Time Alt. Az. Time Alt. Az.
27 Jul - 00:46:02 10° NW 00:48:01 15° N 00:50:00 10° NE visible
27 Jul - 02:22:40 10° NW 02:25:19 22° NNE 02:27:59 10° ENE visible
27 Jul - 03:58:47 10° WNW 04:02:02 74° SW 04:05:17 10° SE visible
27 Jul - 20:38:37 10° SSW 20:41:23 26° SE 20:44:10 10° ENE visible
27 Jul - 22:14:36 10° W 22:17:43 40° NNW 22:20:49 10° NE visible
27 Jul - 23:52:40 10° NW 23:54:48 16° N 23:56:56 10° NNE visible
28 Jul - 01:29:49 10° NNW 01:32:09 18° NNE 01:34:29 10° ENE visible
28 Jul - 03:05:52 10° NW 03:09:06 59° NNE 03:12:19 10° ESE visible
28 Jul - 04:43:05 10° W 04:45:13 16° SW 04:47:21 10° S visible
28 Jul - 19:46:54 10° SSE 19:48:39 14° SE 19:50:25 10° E daylight
28 Jul - 21:21:29 10° WSW 21:24:43 69° NNW 21:27:58 10° NE visible
28 Jul - 22:59:11 10° WNW 23:01:36 19° NNW 23:04:01 10° NE visible
29 Jul - 00:36:52 10° NNW 00:38:57 16° N 00:41:01 10° NE visible
29 Jul - 02:13:02 10° NW 02:16:05 35° NNE 02:19:07 10° E night (unlit)
29 Jul - 03:49:32 10° WNW 03:52:28 31° SW 03:55:23 10° SSE visible
29 Jul - 20:28:34 10° SW 20:31:47 62° SE 20:35:01 10° ENE visible
29 Jul - 22:05:42 10° WNW 22:08:26 24° NNW 22:11:11 10° NE visible
29 Jul - 23:43:44 10° NW 23:45:42 15° N 23:47:41 10° NE visible
30 Jul - 01:20:14 10° NW 01:22:59 24° NNE 01:25:44 10° ENE visible
30 Jul - 02:56:24 10° WNW 02:59:38 61° SW 03:02:50 10° SE night (unlit)
30 Jul - 19:36:01 10° SSW 19:38:57 31° SE 19:41:52 10° ENE daylight
30 Jul - 21:12:18 10° W 21:15:20 35° NNW 21:18:23 10° NE visible
30 Jul - 22:50:24 10° NW 22:52:28 16° N 22:54:33 10° NNE visible
31 Jul - 00:27:24 10° NW 00:29:49 19° NNE 00:32:15 10° ENE visible
31 Jul - 02:03:27 10° NW 02:06:42 70° NNE 02:09:57 10° ESE night (unlit)
31 Jul - 03:41:01 10° W 03:42:45 14° SW 03:44:29 10° SSW night (unlit)
31 Jul - 18:44:02 10° S 18:46:11 16° SE 18:48:20 10° E daylight
31 Jul - 20:19:05 10° WSW 20:22:18 59° NNW 20:25:32 10° NE daylight
31 Jul - 21:56:55 10° WNW 21:59:15 18° NNW 22:01:35 10° NNE visible
31 Jul - 23:34:29 10° NNW 23:36:37 16° N 23:38:45 10° NE visible
01 Aug - 01:10:35 10° NW 01:13:42 40° NNE 01:16:47 10° E visible
01 Aug - 02:47:14 10° WNW 02:50:01 26° SW 02:52:46 10° SSE night (unlit)
01 Aug - 19:26:06 10° SW 19:29:21 75° SE 19:32:36 10° ENE daylight
01 Aug - 21:03:25 10° WNW 21:06:04 22° NNW 21:08:44 10° NE visible
01 Aug - 22:41:24 10° NW 22:43:22 15° N 22:45:21 10° NE visible
02 Aug - 00:17:46 10° NW 00:20:37 27° NNE 00:23:26 10° E visible
02 Aug - 01:54:01 10° WNW 01:57:11 50° SW 02:00:20 10° SE night (unlit)
02 Aug - 18:33:26 10° SSW 18:36:28 37° SE 18:39:32 10° ENE daylight
02 Aug - 20:09:58 10° W 20:12:56 31° NNW 20:15:55 10° NE daylight
02 Aug - 21:48:06 10° NW 21:50:07 15° N 21:52:08 10° NE visible
02 Aug - 23:24:57 10° NW 23:27:27 20° NNE 23:29:58 10° ENE visible
03 Aug - 01:01:00 10° NW 01:04:16 83° NE 01:07:31 10° ESE visible
03 Aug - 02:39:07 10° WSW 02:40:15 11° SW 02:41:22 10° SSW night (unlit)
03 Aug - 17:41:14 10° S 17:43:41 20° SE 17:46:07 10° E daylight
03 Aug - 19:16:42 10° WSW 19:19:53 50° NNW 19:23:04 10° NE daylight
03 Aug - 20:54:38 10° NW 20:56:53 17° N 20:59:08 10° NNE visible
03 Aug - 22:32:02 10° NNW 22:34:15 17° N 22:36:27 10° NE visible
04 Aug - 00:08:06 10° NW 00:11:17 46° NNE 00:14:25 10° ESE visible
04 Aug - 01:44:57 10° W 01:47:31 22° SW 01:50:05 10° S night (unlit)
04 Aug - 16:50:32 10° SE 16:50:58 10° SE 16:51:23 10° ESE daylight
04 Aug - 18:23:38 10° SW 18:26:54 89° SE 18:30:10 10° NE daylight
04 Aug - 20:01:07 10° WNW 20:03:40 21° NNW 20:06:14 10° NE daylight
04 Aug - 21:38:59 10° NW 21:41:00 15° N 21:43:00 10° NE visible
04 Aug - 23:15:17 10° NW 23:18:12 29° NNE 23:21:07 10° E visible
05 Aug - 00:51:37 10° WNW 00:54:42 41° SW 00:57:47 10° SSE night (unlit)
05 Aug - 17:30:51 10° SSW 17:33:59 45° SE 17:37:07 10° ENE daylight
05 Aug - 19:07:38 10° W 19:10:31 28° NNW 19:13:24 10° NE daylight
05 Aug - 20:45:44 10° NW 20:47:44 15° N 20:49:44 10° NE visible
05 Aug - 22:22:27 10° NW 22:25:03 21° NNE 22:27:39 10° ENE visible
